Starlink 31112

operational
NORAD ID: 58680 Int'l Des: 2023-211 Owner: SPXS Country: US Constellation: starlink
LEOCIRCULAR

Starlink 31112について

説明を読み込み中...

リアルタイム位置

3D地球を読み込み中...

次回通過

高度履歴

Altitude vs Time

uPlot chart will show altitude changes over time

軌道要素

1 58680U 23211P 25259.68513080 -.00000043 00000-0 79518-5 0 9993
2 58680 43.0018 347.8990 0001129 273.2778 86.7945 15.27569788 97030
Epoch: Sep 16, 2025 • Age: 56 hours

現在のステータス

高度 482.6 km
速度 7.63 km/s
衛星直下点 13.61°N, 140.72°E
打ち上げ日 Dec 29, 2023
運用期間 1.7 years
タイプ internet

技術仕様

分類 Payload
質量 730.00 kg
乾燥質量 700.00 kg
総質量 730.00 kg
長さ 0.30 m
直径 4.10 m
スパン 29.00 m
形状 Box + pan
製造者 SPXS
バスタイプ Starlink V2M
フェーズステータス In Orbit
所有者/国 SPXS/US

大規模コンステレーション

Loading constellations...